TimePST,TemperatureF,Dew PointF,Humidity,Sea Level PressureIn,VisibilityMPH,Wind Direction,Wind SpeedMPH,Gust SpeedMPH,PrecipitationIn,Events,Conditions,WindDirDegrees,DateUTC
12:53 AM,41.0,37.9,89,30.20,7.0,Calm,Calm,-,N/A,,Partly Cloudy,0,2013-02-16 08:53:00
1:53 AM,39.9,37.9,93,30.19,6.0,SSE,4.6,-,N/A,,Partly Cloudy,150,2013-02-16 09:53:00
2:23 AM,41.0,39.2,93,30.17,2.0,SE,4.6,-,N/A,,Overcast,140,2013-02-16 10:23:00
2:36 AM,41.0,39.2,93,30.17,1.8,SSE,6.9,-,N/A,,Overcast,150,2013-02-16 10:36:00
2:48 AM,41.0,39.2,93,30.17,0.5,SSE,6.9,-,N/A,Fog,Fog,150,2013-02-16 10:48:00
2:53 AM,42.1,39.0,89,30.19,0.5,SE,9.2,-,N/A,Fog,Fog,140,2013-02-16 10:53:00
3:06 AM,41.0,39.2,93,30.16,1.0,ESE,6.9,-,N/A,,Mostly Cloudy,120,2013-02-16 11:06:00
3:14 AM,41.0,39.2,93,30.16,1.5,ESE,10.4,-,N/A,,Mostly Cloudy,110,2013-02-16 11:14:00
3:22 AM,42.8,39.2,87,30.16,2.5,SSE,10.4,18.4,N/A,,Mostly Cloudy,150,2013-02-16 11:22:00
3:31 AM,41.0,39.2,93,30.16,3.0,SSE,8.1,18.4,N/A,,Mostly Cloudy,150,2013-02-16 11:31:00
3:53 AM,43.0,39.9,89,30.18,5.0,South,9.2,-,N/A,,Mostly Cloudy,190,2013-02-16 11:53:00
4:14 AM,44.6,41.0,87,30.15,6.0,SSW,13.8,-,N/A,,Mostly Cloudy,200,2013-02-16 12:14:00
4:24 AM,44.6,41.0,87,30.15,6.0,SSW,12.7,-,N/A,,Overcast,200,2013-02-16 12:24:00
4:53 AM,45.0,42.1,90,30.18,6.0,South,9.2,-,N/A,,Overcast,180,2013-02-16 12:53:00
5:53 AM,46.0,42.1,86,30.17,10.0,South,12.7,-,N/A,,Mostly Cloudy,190,2013-02-16 13:53:00
6:53 AM,46.0,42.1,86,30.18,10.0,SSW,12.7,-,N/A,,Overcast,210,2013-02-16 14:53:00
7:53 AM,46.0,42.1,86,30.19,10.0,SSW,13.8,-,N/A,,Overcast,200,2013-02-16 15:53:00
8:53 AM,46.9,41.0,80,30.20,10.0,SSW,15.0,-,N/A,,Overcast,200,2013-02-16 16:53:00
9:53 AM,46.9,42.1,83,30.20,10.0,South,15.0,-,N/A,,Overcast,190,2013-02-16 17:53:00
10:11 AM,48.2,42.8,82,30.17,10.0,South,17.3,23.0,N/A,,Mostly Cloudy,190,2013-02-16 18:11:00
10:53 AM,48.0,39.9,74,30.20,10.0,SSW,17.3,23.0,N/A,,Overcast,210,2013-02-16 18:53:00
11:53 AM,51.8,39.2,62,30.16,10.0,SSW,19.6,26.5,N/A,,Scattered Clouds,210,2013-02-16 19:53:00
12:53 PM,52.0,39.9,63,30.17,10.0,SSW,19.6,24.2,N/A,,Mostly Cloudy,210,2013-02-16 20:53:00
1:28 PM,51.8,35.6,54,30.12,10.0,SSW,21.9,29.9,N/A,,Scattered Clouds,210,2013-02-16 21:28:00
1:53 PM,51.1,37.9,61,30.16,10.0,SSW,17.3,28.8,N/A,,Mostly Cloudy,210,2013-02-16 21:53:00
2:53 PM,52.0,37.0,57,30.15,10.0,SW,20.7,29.9,N/A,,Mostly Cloudy,220,2013-02-16 22:53:00
3:53 PM,48.9,37.9,66,30.16,10.0,SW,13.8,24.2,N/A,,Mostly Cloudy,220,2013-02-16 23:53:00
4:53 PM,48.9,35.1,59,30.16,10.0,SW,12.7,21.9,N/A,,Mostly Cloudy,220,2013-02-17 00:53:00
5:53 PM,46.9,36.0,66,30.17,10.0,SW,13.8,-,N/A,,Mostly Cloudy,220,2013-02-17 01:53:00
6:53 PM,45.0,37.0,74,30.18,10.0,SSW,10.4,-,N/A,,Mostly Cloudy,210,2013-02-17 02:53:00
7:53 PM,45.0,37.0,74,30.19,10.0,SSW,10.4,-,N/A,,Mostly Cloudy,210,2013-02-17 03:53:00
8:53 PM,44.1,36.0,73,30.19,10.0,SSW,11.5,-,N/A,,Overcast,210,2013-02-17 04:53:00
9:53 PM,43.0,36.0,76,30.20,10.0,SSW,12.7,-,0.00,Rain,Light Rain,210,2013-02-17 05:53:00
10:53 PM,43.0,35.1,74,30.22,10.0,SSW,11.5,-,0.00,,Overcast,200,2013-02-17 06:53:00
11:53 PM,42.1,35.1,76,30.22,10.0,South,8.1,-,N/A,,Overcast,190,2013-02-17 07:53:00